NOZ1054 ENGM-EHAM

Flight info

Callsign NOZ1054
Flight time N/A
Altitude 36000
Route VIPPA1A/01L VIPPA DCT ELKOP DCT AMSEV DCT RERPA DCT KUGAL DCT EEL DCT BLUFA
Aircraft B738/M-SDE2E3FGHIRWXY/LB1

Departure

Time N/A
Airport Oslo-Gardermoen International Airport (ENGM)

Arrival

Time 2026-04-28 18:27
Airport Amsterdam Airport Schiphol (EHAM)
Time Latitude Longitude Altitude Speed Heading
2026-04-28 17:44 55.45402 7.79059 36002 ft 447 kts 192°
2026-04-28 17:44 55.42354 7.77908 36000 ft 447 kts 192°
2026-04-28 17:45 55.36294 7.75625 36004 ft 447 kts 192°
2026-04-28 17:45 55.30263 7.73361 36000 ft 447 kts 192°
2026-04-28 17:46 55.24220 7.71099 36000 ft 447 kts 192°
2026-04-28 17:46 55.18109 7.68818 36000 ft 447 kts 192°
2026-04-28 17:47 55.12014 7.66551 36004 ft 451 kts 192°
2026-04-28 17:47 55.05847 7.64262 36013 ft 459 kts 192°
2026-04-28 17:48 54.99542 7.61893 36005 ft 465 kts 195°
2026-04-28 17:48 54.93437 7.58720 36011 ft 466 kts 198°
2026-04-28 17:49 54.87879 7.55626 36001 ft 466 kts 198°
2026-04-28 17:49 54.81692 7.52209 35997 ft 466 kts 198°
2026-04-28 17:50 54.75506 7.48855 36001 ft 465 kts 197°
2026-04-28 17:50 54.69324 7.45537 36002 ft 464 kts 197°
2026-04-28 17:51 54.63190 7.42259 35999 ft 464 kts 197°
2026-04-28 17:51 54.57049 7.38986 36001 ft 463 kts 197°
2026-04-28 17:52 54.50886 7.35711 35999 ft 462 kts 197°
2026-04-28 17:52 54.41696 7.30845 36002 ft 462 kts 197°
2026-04-28 17:53 54.38615 7.29219 35897 ft 464 kts 197°
2026-04-28 17:53 54.35518 7.27587 35627 ft 465 kts 197°
2026-04-28 17:53 54.32438 7.25967 35379 ft 463 kts 197°
2026-04-28 17:53 54.29360 7.24350 35131 ft 462 kts 197°
2026-04-28 17:54 54.26305 7.22748 34890 ft 463 kts 197°
2026-04-28 17:54 54.23310 7.21179 34651 ft 463 kts 197°
2026-04-28 17:54 54.20261 7.19585 34408 ft 464 kts 197°
2026-04-28 17:54 54.17173 7.17973 34161 ft 464 kts 197°
2026-04-28 17:55 54.14076 7.16359 33913 ft 464 kts 197°
2026-04-28 17:55 54.10984 7.14749 33663 ft 464 kts 197°
2026-04-28 17:55 54.07962 7.13179 33422 ft 463 kts 197°
2026-04-28 17:55 54.04889 7.11585 33175 ft 461 kts 197°
2026-04-28 17:56 54.01826 7.09998 32920 ft 460 kts 197°
2026-04-28 17:56 53.98739 7.08401 32690 ft 468 kts 197°
2026-04-28 17:56 53.95607 7.06784 32450 ft 475 kts 197°
2026-04-28 17:56 53.92444 7.05153 32202 ft 476 kts 197°
2026-04-28 17:57 53.89282 7.03525 31945 ft 473 kts 197°
2026-04-28 17:57 53.86176 7.01929 31697 ft 471 kts 197°
2026-04-28 17:57 53.83031 7.00315 31444 ft 469 kts 197°
2026-04-28 17:57 53.79921 6.98722 31193 ft 467 kts 197°
2026-04-28 17:58 53.76830 6.97140 30944 ft 465 kts 197°
2026-04-28 17:58 53.73726 6.95555 30691 ft 462 kts 197°
2026-04-28 17:58 53.70633 6.93978 30439 ft 460 kts 197°
2026-04-28 17:58 53.67580 6.92423 30188 ft 458 kts 197°
2026-04-28 17:59 53.64534 6.90874 29937 ft 455 kts 197°
2026-04-28 17:59 53.61552 6.89360 29691 ft 453 kts 197°
2026-04-28 17:59 53.58533 6.87829 29440 ft 451 kts 197°
2026-04-28 17:59 53.55536 6.86312 29189 ft 449 kts 197°
2026-04-28 18:00 53.52542 6.84799 28941 ft 447 kts 197°
2026-04-28 18:00 53.49564 6.83296 28691 ft 446 kts 197°
2026-04-28 18:00 53.46602 6.81803 28445 ft 444 kts 197°
2026-04-28 18:00 53.43641 6.80313 28193 ft 443 kts 197°
2026-04-28 18:01 53.40697 6.78833 27944 ft 441 kts 197°
2026-04-28 18:01 53.37770 6.77364 27691 ft 440 kts 197°
2026-04-28 18:01 53.34829 6.75890 27436 ft 438 kts 197°
2026-04-28 18:01 53.31903 6.74426 27193 ft 437 kts 197°
2026-04-28 18:02 53.29091 6.73021 26952 ft 435 kts 197°
2026-04-28 18:02 53.26375 6.71279 26712 ft 432 kts 207°
2026-04-28 18:02 53.23814 6.68635 26659 ft 416 kts 216°
2026-04-28 18:02 53.21729 6.65644 26578 ft 403 kts 223°
2026-04-28 18:03 53.19679 6.62383 26502 ft 390 kts 224°
2026-04-28 18:03 53.17743 6.59295 26317 ft 380 kts 224°
2026-04-28 18:03 53.15838 6.56267 25954 ft 377 kts 224°
2026-04-28 18:03 53.13938 6.53263 25501 ft 376 kts 223°
2026-04-28 18:04 53.12037 6.50273 25072 ft 375 kts 223°
2026-04-28 18:04 53.10145 6.47307 24683 ft 372 kts 223°
2026-04-28 18:04 53.08285 6.44401 24299 ft 370 kts 223°
2026-04-28 18:04 53.06390 6.41446 23914 ft 367 kts 223°
2026-04-28 18:05 53.04561 6.38598 23520 ft 365 kts 223°
2026-04-28 18:05 53.03299 6.36636 23265 ft 364 kts 223°
2026-04-28 18:05 53.00855 6.32840 22761 ft 361 kts 223°
2026-04-28 18:05 52.99029 6.30009 22376 ft 359 kts 223°
2026-04-28 18:06 52.97208 6.27188 21997 ft 357 kts 223°
2026-04-28 18:06 52.95533 6.24598 21647 ft 355 kts 223°
2026-04-28 18:06 52.93729 6.21810 21270 ft 353 kts 223°
2026-04-28 18:06 52.91961 6.19081 20901 ft 351 kts 223°
2026-04-28 18:07 52.90181 6.16337 20528 ft 348 kts 223°
2026-04-28 18:07 52.88419 6.13623 20160 ft 346 kts 223°
2026-04-28 18:07 52.86660 6.10919 19676 ft 348 kts 223°
2026-04-28 18:07 52.84872 6.08172 19131 ft 351 kts 223°
2026-04-28 18:08 52.83079 6.05420 18587 ft 353 kts 223°
2026-04-28 18:08 52.81266 6.02642 18041 ft 355 kts 223°
2026-04-28 18:08 52.79473 5.99897 17497 ft 357 kts 223°
2026-04-28 18:08 52.77647 5.97105 16944 ft 358 kts 223°
2026-04-28 18:09 52.75808 5.94296 16407 ft 359 kts 223°
2026-04-28 18:09 52.73971 5.91494 15859 ft 360 kts 223°
2026-04-28 18:09 52.72129 5.88688 15315 ft 360 kts 223°
2026-04-28 18:09 52.70287 5.85884 14763 ft 360 kts 223°
2026-04-28 18:10 52.68441 5.83079 14213 ft 360 kts 223°
2026-04-28 18:10 52.66599 5.80282 13664 ft 360 kts 223°
2026-04-28 18:10 52.64812 5.77573 13131 ft 359 kts 223°
2026-04-28 18:10 52.62944 5.74743 12573 ft 358 kts 223°
2026-04-28 18:11 52.61110 5.71968 12018 ft 357 kts 223°
2026-04-28 18:11 52.59266 5.69182 11332 ft 360 kts 223°
2026-04-28 18:11 52.57426 5.66403 10862 ft 354 kts 223°
2026-04-28 18:11 52.55651 5.63725 10445 ft 339 kts 223°
2026-04-28 18:12 52.53954 5.61170 10217 ft 321 kts 222°
2026-04-28 18:12 52.52554 5.59066 10086 ft 305 kts 222°
2026-04-28 18:12 52.51064 5.56731 9985 ft 289 kts 230°
2026-04-28 18:12 52.49972 5.54056 9999 ft 276 kts 239°
2026-04-28 18:13 52.49016 5.51410 9993 ft 269 kts 239°
2026-04-28 18:13 52.48070 5.48771 10004 ft 271 kts 239°
2026-04-28 18:13 52.47098 5.46071 10013 ft 277 kts 239°
2026-04-28 18:13 52.46106 5.43341 10011 ft 278 kts 239°
2026-04-28 18:14 52.45114 5.40624 9915 ft 279 kts 239°
2026-04-28 18:14 52.44105 5.37876 9655 ft 283 kts 239°
2026-04-28 18:14 52.43090 5.35120 9406 ft 281 kts 239°
2026-04-28 18:14 52.42085 5.32398 9149 ft 278 kts 238°
2026-04-28 18:15 52.41090 5.29704 8891 ft 275 kts 238°
2026-04-28 18:15 52.40104 5.27044 8645 ft 272 kts 238°
2026-04-28 18:15 52.39124 5.24400 8393 ft 270 kts 238°
2026-04-28 18:15 52.38153 5.21784 8142 ft 268 kts 238°
2026-04-28 18:16 52.37191 5.19192 7890 ft 266 kts 238°
2026-04-28 18:16 52.36236 5.16626 7642 ft 264 kts 238°
2026-04-28 18:16 52.35275 5.14049 7390 ft 263 kts 238°
2026-04-28 18:16 52.34327 5.11532 7138 ft 262 kts 238°
2026-04-28 18:17 52.33360 5.09012 6893 ft 261 kts 238°
2026-04-28 18:17 52.32391 5.06499 6652 ft 261 kts 237°
2026-04-28 18:17 52.31421 5.03992 6398 ft 261 kts 237°
2026-04-28 18:17 52.30460 5.01513 6151 ft 260 kts 237°
2026-04-28 18:18 52.29491 4.99015 5902 ft 260 kts 237°
2026-04-28 18:18 52.28521 4.96516 5652 ft 260 kts 237°
2026-04-28 18:18 52.27552 4.94020 5395 ft 260 kts 237°
2026-04-28 18:18 52.26908 4.92363 5235 ft 260 kts 237°
2026-04-28 18:19 52.25628 4.89068 4896 ft 259 kts 237°
2026-04-28 18:19 52.24665 4.86592 4655 ft 258 kts 237°
2026-04-28 18:19 52.23690 4.84088 4403 ft 258 kts 237°
2026-04-28 18:19 52.22731 4.81624 4153 ft 257 kts 237°
2026-04-28 18:20 52.21785 4.79196 3902 ft 256 kts 237°
2026-04-28 18:20 52.20834 4.76756 3653 ft 255 kts 237°
2026-04-28 18:20 52.19884 4.74318 3401 ft 253 kts 237°
2026-04-28 18:20 52.18941 4.71901 3151 ft 252 kts 237°
2026-04-28 18:21 52.18001 4.69493 2901 ft 251 kts 237°
2026-04-28 18:21 52.17068 4.67104 2655 ft 249 kts 237°
2026-04-28 18:21 52.16142 4.64733 2396 ft 247 kts 237°
2026-04-28 18:21 52.15373 4.62319 2239 ft 231 kts 257°
2026-04-28 18:22 52.15422 4.59760 2213 ft 226 kts 289°
2026-04-28 18:22 52.16286 4.57767 2221 ft 211 kts 323°
2026-04-28 18:22 52.17511 4.56594 2233 ft 204 kts 332°
2026-04-28 18:22 52.18777 4.55579 2231 ft 204 kts 341°
2026-04-28 18:23 52.20177 4.55517 2222 ft 203 kts 16°
2026-04-28 18:23 52.21442 4.56267 2327 ft 184 kts 25°
2026-04-28 18:23 52.22387 4.57464 2334 ft 165 kts 52°
2026-04-28 18:23 52.23087 4.58899 2169 ft 156 kts 52°
2026-04-28 18:24 52.23747 4.60307 2003 ft 156 kts 56°
2026-04-28 18:24 52.23955 4.60802 1899 ft 156 kts 57°
2026-04-28 18:24 52.24716 4.62746 1595 ft 152 kts 58°
2026-04-28 18:24 52.25257 4.64159 1388 ft 141 kts 58°
2026-04-28 18:25 52.25773 4.65512 1191 ft 138 kts 59°
2026-04-28 18:25 52.26277 4.66833 1017 ft 137 kts 58°
2026-04-28 18:25 52.26781 4.68153 812 ft 137 kts 57°
2026-04-28 18:26 52.27789 4.70769 436 ft 135 kts 58°
2026-04-28 18:26 52.28288 4.72062 271 ft 136 kts 58°
2026-04-28 18:26 52.28782 4.73371 89 ft 134 kts 58°
2026-04-28 18:26 52.29256 4.74626 0 ft 123 kts 58°
2026-04-28 18:27 52.29650 4.75648 -3 ft 88 kts 58°
2026-04-28 18:27 52.29889 4.76271 -5 ft 41 kts 58°
2026-04-28 18:27 52.30012 4.76519 -4 ft 25 kts 39°
2026-04-28 18:27 52.30113 4.76610 -4 ft 0 kts 27°
2026-04-28 18:28 52.30116 4.76612 -4 ft 2 kts 27°
2026-04-28 18:28 52.30154 4.76645 -4 ft 11 kts 27°
2026-04-28 18:28 52.30239 4.76717 -3 ft 17 kts 27°
2026-04-28 18:28 52.30334 4.76872 -4 ft 23 kts 59°
2026-04-28 18:29 52.30407 4.77069 -4 ft 19 kts 58°
2026-04-28 18:29 52.30469 4.77229 -4 ft 17 kts 57°
2026-04-28 18:29 52.30533 4.77395 -4 ft 18 kts 58°
2026-04-28 18:29 52.30575 4.77495 -3 ft 7 kts 40°
2026-04-28 18:30 52.30628 4.77492 -3 ft 8 kts 336°
2026-04-28 18:30 52.30663 4.77467 -3 ft 7 kts 336°
2026-04-28 18:30 52.30753 4.77460 -3 ft 7 kts
2026-04-28 18:30 52.30761 4.77460 -3 ft 0 kts
2026-04-28 18:31 52.30764 4.77461 -3 ft 0 kts
2026-04-28 18:31 52.30768 4.77461 -3 ft 1 kts
2026-04-28 18:31 52.30808 4.77462 -3 ft 10 kts 353°
2026-04-28 18:31 52.30838 4.77372 -3 ft 12 kts 271°
2026-04-28 18:32 52.30842 4.77234 -3 ft 11 kts 272°
2026-04-28 18:32 52.30860 4.77125 -3 ft 9 kts 310°
2026-04-28 18:32 52.30900 4.77110 -3 ft 2 kts
2026-04-28 18:32 52.30902 4.77110 -3 ft 0 kts